Regional Weather Roundup
Issued by NWS

Home | Current Version | Previous Version | Text Only | Print | Product List | Glossary On
Versions: 1 2 3 4 5 6 7 8 9 10 11 12 13 14 15 16 17 18 19 20 21 22 23 24 25 26 27 28 29 30 31 32 33 34 35 36 37 38 39 40 41 42 43 44 45 46 47 48 49 50
000
ASCA42 TJSJ 240911
RWRPR
PUERTO RICO/U.S. VIRGIN ISLANDS HOURLY WEATHER ROUNDUP
NATIONAL WEATHER SERVICE SAN JUAN PR
500 AM AST THU JUL 24 2014

PRZ001-004-241000-
PUERTO RICO

CITY           SKY/WX    TMP DP  RH WIND       PRES   REMARKS
SAN JUAN LMM   PTCLDY    82  75  78 E10       30.02S
PONCE          PTCLDY    81  72  74 E9        29.98S
AGUADILLA      CLOUDY    79  75  89 E13G20    30.03S
CEIBA          CLOUDY    81  73  78 E6        30.05S
$$

PRZ006-007-241000-
U.S. VIRGIN ISLANDS

CITY           SKY/WX    TMP DP  RH WIND       PRES   REMARKS
CHARLOTTE AMA  CLOUDY    82  75  78 E5        30.02R
CHRISTIANSTED  PTCLDY    81  72  74 NE10      30.01S
$$

HOURLY WEATHER ROUNDUP FOR THE NEWS MEDIA

CITY           SKY/WX    TMP DP  RH WIND       PRES   REMARKS
MIAMI          MOCLDY    81  75  82 CALM      30.02S
ORLANDO        CLEAR     79  76  90 CALM      30.01S
NEW YORK       CLOUDY    75  68  78 N9        29.82R
NEWARK         MOCLDY    72  66  81 NW8       29.81S
CHICAGO        CLEAR     58  50  75 N7        30.13S
HARTFORD       CLOUDY    70  68  93 CALM      29.75S
BOSTON         CLOUDY    74  68  81 NW7       29.76R
DALLAS         MOCLDY    75  69  81 SE8       30.02R
PHILADELPHIA   CLOUDY    73  63  70 N10       29.84S



USA.gov is the U.S. government's official web portal to all federal, state and local government web resources and services.